KAZSAT-3

Last updated on Tue Oct 08 2024 00:02:39 GMT+0000 (Coordinated Universal Time)

1 39728U 14023B 24281.20465913 .00000071 00000+0 00000+0 0 9992 2 39728 0.0125 135.0459 0000626 190.6806 182.8122 1.00272801 36251
UTC large
Height (km)
Speed (km/s)
/
Latitude / Longitude
Inclination (degrees)
Orbital Period (minutes)
Azimuth
Elevation
Range (km)
Doppler Factor

Next 0 passes for location: London (51.5072 / 0.1276)

Sorry there are no passes over London.